Weather History for KAZC - September, 2013

Change the Weather History Date:

Thursday, September 19, 2013

  Actual Average (KCDC) Record (KCDC)
Temperature  
Mean Temperature 62 °F 60 °F  
Max Temperature 84 °F 78 °F 90 °F (1956)
Min Temperature 41 °F 43 °F 24 °F (1971)
Degree Days  
Heating Degree Days 2 5  
Month to date heating degree days 53  
Since 1 July heating degree days 62  
Cooling Degree Days 0 1  
Month to date cooling degree days 35  
Year to date cooling degree days 584  
Growing Degree Days 12 (Base 50)    
Moisture  
Dew Point 39 °F    
Average Humidity 47    
Maximum Humidity 91    
Minimum Humidity 17    
Precipitation  
Precipitation 0.00 in 0.02 in 0.84 in (1972)
Month to date precipitation 0.40  
Year to date precipitation 7.94  
Sea Level Pressure  
Sea Level Pressure 30.05 in    
Wind  
Wind Speed 4 mph (NNW)    
Max Wind Speed 14 mph    
Max Gust Speed 18 mph    
Visibility 10 miles    
Events      
T = Trace of Precipitation, MM = Missing Value Source: NWS Daily Summary

Daily Weather History Graph

Daily Weather History Graph

Search for Another Location

Airport or City:

Trip Planner

Search our weather history database for the weather conditions in past years. The results will help you decide how hot, cold, wet, or windy it might be!

Date:

Astronomy

Sep. 19, 2013 Rise Set
Actual Time 6:17 AM MST 6:33 PM MST
Civil Twilight 5:51 AM MST 6:58 PM MST
Nautical Twilight 5:21 AM MST 7:29 PM MST
Astronomical Twilight 4:50 AM MST 8:00 PM MST
Moon 6:35 PM MST (9/19) 6:29 AM MST (9/19)
Length of Visible Light 13h 07m
Length of Day
12h 15m
Full, 100% of the Moon is Illuminated
Sep 19
Full
Sep 26
Last Quarter
Oct 4
New
Oct 11
First Quarter
Oct 18
Full

Hourly Weather History & Observations

Time (MST) Temp. Windchill Dew Point Humidity Pressure Visibility Wind Dir Wind Speed Gust Speed Precip Events Conditions
12:15 AM 48.7 °F - 41.7 °F 77% 30.00 in 10.0 mi Calm Calm - N/A   Clear
12:35 AM 47.5 °F - 41.4 °F 79% 30.01 in 10.0 mi SE 3.5 mph - N/A   Clear
12:55 AM 46.0 °F 43.1 °F 41.2 °F 83% 30.02 in 10.0 mi ESE 5.8 mph - N/A   Clear
1:15 AM 47.7 °F - 41.0 °F 78% 30.02 in 10.0 mi East 3.5 mph - N/A   Clear
1:35 AM 48.2 °F - 40.6 °F 75% 30.03 in 10.0 mi ESE 3.5 mph - N/A   Clear
1:55 AM 48.6 °F - 40.5 °F 74% 30.03 in 10.0 mi Calm Calm - N/A   Clear
2:15 AM 49.3 °F - 40.3 °F 71% 30.03 in 10.0 mi East 5.8 mph - N/A   Clear
2:35 AM 47.5 °F - 40.5 °F 77% 30.03 in 10.0 mi Calm Calm - N/A   Clear
2:55 AM 48.0 °F - 40.6 °F 76% 30.03 in 10.0 mi SSW 4.6 mph - N/A   Clear
3:15 AM 46.9 °F - 40.8 °F 79% 30.03 in 10.0 mi SE 3.5 mph - N/A   Clear
3:35 AM 46.8 °F - 40.8 °F 80% 30.04 in 10.0 mi East 3.5 mph - N/A   Clear
3:55 AM 46.0 °F - 40.3 °F 80% 30.03 in 10.0 mi Calm Calm - N/A   Clear
4:15 AM 45.7 °F 44.4 °F 40.5 °F 82% 30.04 in 10.0 mi SE 3.5 mph - N/A   Clear
4:35 AM 44.6 °F 43.1 °F 40.1 °F 84% 30.04 in 10.0 mi East 3.5 mph - N/A   Clear
4:55 AM 45.9 °F - 40.3 °F 81% 30.05 in 10.0 mi Calm Calm - N/A   Clear
5:15 AM 46.4 °F - 40.1 °F 79% 30.05 in 10.0 mi Calm Calm - N/A   Clear
5:35 AM 44.6 °F - 39.4 °F 82% 30.05 in 10.0 mi Calm Calm - N/A   Clear
5:55 AM 44.8 °F 43.3 °F 39.6 °F 82% 30.06 in 10.0 mi East 3.5 mph - N/A   Clear
6:15 AM 43.7 °F - 39.0 °F 84% 30.06 in 10.0 mi Calm Calm - N/A   Clear
6:35 AM 41.5 °F 38.6 °F 39.2 °F 91% 30.07 in 10.0 mi ESE 4.6 mph - N/A   Clear
6:55 AM 44.2 °F 41.8 °F 41.4 °F 90% 30.07 in 10.0 mi ESE 4.6 mph - N/A   Clear
7:15 AM 49.1 °F - 42.8 °F 79% 30.08 in 10.0 mi Calm Calm - N/A   Clear
7:35 AM 53.6 °F - 43.2 °F 68% 30.08 in 10.0 mi Calm Calm - N/A   Clear
7:55 AM 56.8 °F - 44.1 °F 62% 30.09 in 10.0 mi Calm Calm - N/A   Clear
8:15 AM 60.4 °F - 43.3 °F 53% 30.09 in 10.0 mi NW 3.5 mph - N/A   Clear
8:35 AM 64.0 °F - 41.9 °F 44% 30.09 in 10.0 mi NW 3.5 mph - N/A   Clear
8:55 AM 66.7 °F - 40.5 °F 38% 30.09 in 10.0 mi NW 4.6 mph - N/A   Clear
9:15 AM 68.5 °F - 39.4 °F 34% 30.09 in 10.0 mi Calm Calm - N/A   Clear
9:35 AM 70.5 °F - 39.2 °F 32% 30.09 in 10.0 mi Calm Calm - N/A   Clear
9:55 AM 71.8 °F - 39.2 °F 31% 30.09 in 10.0 mi Calm Calm - N/A   Clear
10:15 AM 73.4 °F - 39.4 °F 29% 30.09 in 10.0 mi NNW 3.5 mph - N/A   Clear
10:35 AM 74.5 °F - 39.2 °F 28% 30.09 in 10.0 mi West 3.5 mph - N/A   Clear
10:55 AM 75.7 °F - 40.1 °F 28% 30.09 in 10.0 mi NW 4.6 mph - N/A   Clear
11:15 AM 77.2 °F - 39.7 °F 26% 30.08 in 10.0 mi Calm Calm - N/A   Clear
11:35 AM 78.4 °F - 39.6 °F 25% 30.08 in 10.0 mi WNW 6.9 mph - N/A   Clear
11:55 AM 79.0 °F - 38.8 °F 24% 30.08 in 10.0 mi WNW 5.8 mph - N/A   Clear
12:15 PM 79.9 °F - 38.3 °F 23% 30.07 in 10.0 mi NW 9.2 mph - N/A   Clear
12:35 PM 80.4 °F - 37.6 °F 22% 30.07 in 10.0 mi NNW 3.5 mph - N/A   Clear
12:55 PM 81.1 °F - 36.9 °F 20% 30.06 in 10.0 mi WNW 9.2 mph - N/A   Clear
1:15 PM 82.2 °F - 36.7 °F 20% 30.05 in 10.0 mi WNW 3.5 mph - N/A   Clear
1:35 PM 82.4 °F - 35.8 °F 19% 30.05 in 10.0 mi West 6.9 mph - N/A   Clear
1:55 PM 82.9 °F - 34.9 °F 18% 30.05 in 10.0 mi NNW 5.8 mph - N/A   Clear
2:15 PM 83.3 °F - 36.1 °F 19% 30.04 in 10.0 mi NNW 8.1 mph - N/A   Clear
2:35 PM 83.3 °F - 36.1 °F 19% 30.04 in 10.0 mi West 3.5 mph - N/A   Clear
2:55 PM 83.3 °F - 36.0 °F 18% 30.04 in 10.0 mi North 6.9 mph - N/A   Clear
3:15 PM 83.5 °F - 36.0 °F 18% 30.03 in 10.0 mi WNW 8.1 mph - N/A   Clear
3:35 PM 84.2 °F - 36.0 °F 18% 30.02 in 10.0 mi WNW 11.5 mph 17.3 mph N/A   Clear
3:55 PM 83.7 °F - 35.6 °F 18% 30.02 in 10.0 mi WNW 5.8 mph - N/A   Clear
4:15 PM 83.3 °F - 34.9 °F 18% 30.02 in 10.0 mi NW 9.2 mph - N/A   Clear
4:35 PM 82.8 °F - 34.2 °F 17% 30.02 in 10.0 mi WNW 11.5 mph - N/A   Clear
4:55 PM 82.6 °F - 34.3 °F 18% 30.02 in 10.0 mi WNW 9.2 mph - N/A   Clear
5:15 PM 82.0 °F - 34.2 °F 18% 30.02 in 10.0 mi NW 8.1 mph - N/A   Clear
5:35 PM 81.1 °F - 33.6 °F 18% 30.01 in 10.0 mi NW 8.1 mph - N/A   Clear
5:55 PM 79.7 °F - 33.6 °F 19% 30.01 in 10.0 mi NW 8.1 mph - N/A   Clear
6:15 PM 77.7 °F - 34.7 °F 21% 30.02 in 10.0 mi NW 6.9 mph - N/A   Clear
6:35 PM 74.1 °F - 36.5 °F 25% 30.02 in 10.0 mi NW 8.1 mph - N/A   Clear
6:55 PM 70.5 °F - 37.6 °F 30% 30.02 in 10.0 mi NW 8.1 mph - N/A   Clear
7:15 PM 67.8 °F - 38.3 °F 34% 30.02 in 10.0 mi NNW 3.5 mph - N/A   Clear
7:35 PM 66.6 °F - 38.5 °F 36% 30.02 in 10.0 mi NW 5.8 mph - N/A   Clear
7:55 PM 68.7 °F - 37.2 °F 31% 30.03 in 10.0 mi NW 4.6 mph - N/A   Clear
8:15 PM 67.8 °F - 37.4 °F 33% 30.04 in 10.0 mi WNW 3.5 mph - N/A   Clear
8:35 PM 61.9 °F - 40.3 °F 45% 30.05 in 10.0 mi SSE 4.6 mph - N/A   Clear
8:55 PM 57.9 °F - 42.1 °F 56% 30.05 in 10.0 mi Calm Calm - N/A   Clear
9:15 PM 58.5 °F - 41.5 °F 53% 30.05 in 10.0 mi East 3.5 mph - N/A   Clear
9:35 PM 56.7 °F - 42.3 °F 59% 30.05 in 10.0 mi Calm Calm - N/A   Clear
9:55 PM 54.9 °F - 42.6 °F 63% 30.06 in 10.0 mi Calm Calm - N/A   Clear
10:15 PM 54.3 °F - 42.8 °F 65% 30.06 in 10.0 mi Calm Calm - N/A   Clear
10:35 PM 55.4 °F - 42.4 °F 62% 30.06 in 10.0 mi NNE 3.5 mph - N/A   Clear
10:55 PM 57.4 °F - 41.9 °F 56% 30.06 in 10.0 mi Calm Calm - N/A   Clear
11:15 PM 58.5 °F - 40.5 °F 51% 30.06 in 10.0 mi NE 13.8 mph 18.4 mph N/A   Clear
11:35 PM 66.4 °F - 36.5 °F 33% 30.06 in 10.0 mi NE 12.7 mph - N/A   Clear
11:55 PM 67.8 °F - 35.4 °F 30% 30.07 in 10.0 mi NNE 10.4 mph - N/A   Clear